CYGFM08

Last updated on Sat Jun 21 2025 00:02:20 GMT+0000 (Coordinated Universal Time)

1 41888U 16078E 25171.17773451 .00011888 00000+0 26923-3 0 9992 2 41888 34.9462 95.1901 0011284 347.2121 12.8311 15.42193837472765
UTC large
Height (km)
Speed (km/s)
/
Latitude / Longitude
Inclination (degrees)
Orbital Period (minutes)
Azimuth
Elevation
Range (km)
Doppler Factor

Next 0 passes for location: London (51.5072 / 0.1276)

Sorry there are no passes over London.